Weather History for Canadian, TX

Change the Weather History Date:

Wednesday, December 14, 2011

  Actual Average (KPPA) Record (KPPA)
Temperature  
Mean Temperature 50 °F -  
Max Temperature 59 °F 47 °F 69 °F (1966)
Min Temperature 42 °F 25 °F 8 °F (1985)
Degree Days  
Heating Degree Days 14    
Moisture  
Dew Point 42 °F    
Average Humidity 77    
Maximum Humidity 100    
Minimum Humidity 36    
Precipitation  
Precipitation 0.05 in - - ()
Sea Level Pressure  
Sea Level Pressure 29.88 in    
Wind  
Wind Speed 5 mph (WSW)    
Max Wind Speed 28 mph    
Max Gust Speed 33 mph    
Visibility 7 miles    
Events      
Averages and records for this station are not official NWS values.
T = Trace of Precipitation, MM = Missing Value Source: NWS Daily Summary

Daily Weather History Graph

Daily Weather History Graph

Search for Another Location

Airport:

Trip Planner

Search our weather history database for the weather conditions in past years. The results will help you decide how hot, cold, wet, or windy it might be!

Date:

Astronomy

Dec. 14, 2011 Rise Set
Actual Time 7:43 AM CST 5:28 PM CST
Civil Twilight 7:15 AM CST 5:57 PM CST
Nautical Twilight 6:43 AM CST 6:29 PM CST
Astronomical Twilight 6:12 AM CST 7:00 PM CST
Moon 9:44 PM CST (12/14) 10:34 AM CST (12/14)
Length of Visible Light 10h 41m
Length of Day
9h 44m
Waning Gibbous, 83% of the Moon is Illuminated
Dec 14
Waning Gibbous
Dec 17
Last Quarter
Dec 24
New
Jan 1
First Quarter
Jan 9
Full

Hourly Weather History & Observations

Time (CST) Temp. Windchill Dew Point Humidity Pressure Visibility Wind Dir Wind Speed Gust Speed Precip Events Conditions
12:15 AM 44.6 °F - 44.6 °F 100% 29.95 in 0.8 mi Calm Calm - N/A   Drizzle
12:35 AM 44.6 °F - 44.6 °F 100% 29.95 in 0.5 mi Calm Calm - N/A   Drizzle
12:55 AM 44.6 °F - 44.6 °F 100% 29.94 in 1.0 mi Calm Calm - 0.01 in   Drizzle
1:15 AM 44.6 °F - 44.6 °F 100% 29.94 in 0.8 mi Calm Calm - N/A   Drizzle
1:35 AM 44.6 °F - 44.6 °F 100% 29.93 in 0.8 mi Calm Calm - 0.01 in   Heavy Drizzle
1:55 AM 44.6 °F - 44.6 °F 100% 29.92 in 1.0 mi Calm Calm - 0.02 in   Heavy Drizzle
2:15 AM 44.6 °F - 44.6 °F 100% 29.91 in 1.2 mi Calm Calm - N/A   Heavy Drizzle
2:35 AM 44.6 °F - 44.6 °F 100% 29.91 in 1.5 mi Calm Calm - 0.01 in   Heavy Drizzle
2:55 AM 44.6 °F - 44.6 °F 100% 29.91 in 2.0 mi Calm Calm - 0.01 in   Drizzle
3:15 AM 46.4 °F - 44.6 °F 93% 29.90 in 2.5 mi Calm Calm - N/A   Drizzle
3:35 AM 46.4 °F - 44.6 °F 93% 29.91 in 2.5 mi Calm Calm - 0.01 in   Drizzle
3:55 AM 46.4 °F - 46.4 °F 100% 29.90 in 4.0 mi Calm Calm - 0.01 in   Light Drizzle
4:15 AM 46.4 °F - 46.4 °F 100% 29.89 in 10.0 mi Calm Calm - N/A   Light Drizzle
4:35 AM 46.4 °F - 46.4 °F 100% 29.88 in 7.0 mi Calm Calm - N/A   Overcast
4:55 AM 46.4 °F - 46.4 °F 100% 29.88 in 10.0 mi Calm Calm - N/A   Overcast
5:15 AM 50.0 °F - 50.0 °F 100% 29.87 in 10.0 mi SSW 4.6 mph - N/A   Overcast
5:35 AM 50.0 °F - 50.0 °F 100% 29.86 in 10.0 mi SW 4.6 mph - N/A   Overcast
5:55 AM 50.0 °F - 50.0 °F 100% 29.87 in 10.0 mi SW 5.8 mph - N/A   Overcast
6:15 AM 50.0 °F - 50.0 °F 100% 29.88 in 10.0 mi West 6.9 mph - N/A   Overcast
6:35 AM 50.0 °F - 50.0 °F 100% 29.88 in 10.0 mi SW 6.9 mph - N/A   Overcast
6:55 AM 50.0 °F - 48.2 °F 94% 29.88 in 7.0 mi SW 6.9 mph - N/A   Mostly Cloudy
7:15 AM 50.0 °F - 48.2 °F 94% 29.88 in 5.0 mi WSW 5.8 mph - N/A   Clear
7:35 AM 48.2 °F - 46.4 °F 93% 29.88 in 3.0 mi Calm Calm - N/A   Clear
7:55 AM 46.4 °F - 46.4 °F 100% 29.88 in 2.5 mi Calm Calm - N/A   Clear
8:15 AM 46.4 °F - 46.4 °F 100% 29.88 in 2.5 mi Calm Calm - N/A   Mostly Cloudy
8:35 AM 48.2 °F - 46.4 °F 93% 29.88 in 3.0 mi WSW 4.6 mph - N/A   Overcast
8:55 AM 50.0 °F - 48.2 °F 94% 29.88 in 3.0 mi SW 6.9 mph - N/A   Mostly Cloudy
9:35 AM 51.8 °F - 50.0 °F 94% 29.88 in 5.0 mi SW 13.8 mph - N/A   Clear
9:55 AM 53.6 °F - 50.0 °F 88% 29.88 in 7.0 mi SW 13.8 mph - N/A   Clear
10:15 AM 53.6 °F - 48.2 °F 82% 29.88 in 10.0 mi SW 15.0 mph - N/A   Clear
10:35 AM 53.6 °F - 48.2 °F 82% 29.88 in 10.0 mi SW 12.7 mph - N/A   Clear
10:55 AM 55.4 °F - 48.2 °F 77% 29.88 in 10.0 mi SW 12.7 mph 19.6 mph N/A   Clear
11:15 AM 55.4 °F - 46.4 °F 72% 29.88 in 10.0 mi SW 15.0 mph 21.9 mph N/A   Clear
11:35 AM 57.2 °F - 44.6 °F 63% 29.87 in 10.0 mi SW 20.7 mph 27.6 mph N/A   Clear
11:55 AM 57.2 °F - 42.8 °F 59% 29.86 in 10.0 mi WSW 19.6 mph 26.5 mph N/A   Clear
12:15 PM 59.0 °F - 42.8 °F 55% 29.84 in 10.0 mi WSW 25.3 mph 33.4 mph N/A   Clear
12:35 PM 57.2 °F - 42.8 °F 59% 29.83 in 10.0 mi SW 23.0 mph 29.9 mph N/A   Clear
12:55 PM 57.2 °F - 39.2 °F 51% 29.83 in 10.0 mi WSW 21.9 mph 32.2 mph N/A   Clear
1:15 PM 57.2 °F - 37.4 °F 48% 29.83 in 10.0 mi West 27.6 mph 32.2 mph N/A   Clear
1:55 PM 57.2 °F - 37.4 °F 48% 29.83 in 10.0 mi West 21.9 mph 32.2 mph N/A   Clear
2:15 PM 57.2 °F - 39.2 °F 51% 29.82 in 10.0 mi WSW 18.4 mph 29.9 mph N/A   Clear
2:35 PM 57.2 °F - 37.4 °F 48% 29.82 in 10.0 mi West 16.1 mph 28.8 mph N/A   Clear
2:55 PM 57.2 °F - 35.6 °F 44% 29.82 in 10.0 mi WSW 16.1 mph 26.5 mph N/A   Clear
3:15 PM 55.4 °F - 35.6 °F 47% 29.82 in 10.0 mi WSW 12.7 mph 21.9 mph N/A   Clear
3:35 PM 57.2 °F - 33.8 °F 41% 29.81 in 10.0 mi WSW 13.8 mph 19.6 mph N/A   Clear
3:55 PM 59.0 °F - 33.8 °F 39% 29.82 in 10.0 mi WSW 15.0 mph 19.6 mph N/A   Clear
4:15 PM 59.0 °F - 32.0 °F 36% 29.83 in 10.0 mi West 13.8 mph - N/A   Clear
4:35 PM 57.2 °F - 32.0 °F 38% 29.83 in 10.0 mi West 11.5 mph - N/A   Clear
4:55 PM 55.4 °F - 33.8 °F 44% 29.84 in 10.0 mi WSW 8.1 mph - N/A   Clear
5:15 PM 55.4 °F - 33.8 °F 44% 29.85 in 10.0 mi WSW 8.1 mph - N/A   Clear
5:35 PM 53.6 °F - 33.8 °F 47% 29.86 in 10.0 mi West 6.9 mph - N/A   Clear
5:55 PM 50.0 °F - 33.8 °F 54% 29.87 in 10.0 mi WSW 6.9 mph - N/A   Clear
6:35 PM 46.4 °F 43.5 °F 35.6 °F 66% 29.89 in 10.0 mi SW 5.8 mph - N/A   Clear
6:55 PM 44.6 °F 40.2 °F 35.6 °F 71% 29.89 in 10.0 mi SW 8.1 mph - N/A   Clear
7:15 PM 42.8 °F 38.0 °F 35.6 °F 76% 29.90 in 10.0 mi SW 8.1 mph - N/A   Clear
7:35 PM 44.6 °F 39.7 °F 35.6 °F 71% 29.92 in 10.0 mi North 9.2 mph - N/A   Clear
7:55 PM 46.4 °F 43.5 °F 37.4 °F 71% 29.94 in 10.0 mi NNW 5.8 mph - N/A   Clear
8:15 PM 46.4 °F 44.3 °F 37.4 °F 71% 29.95 in 10.0 mi NNW 4.6 mph - N/A   Clear
8:35 PM 44.6 °F - 37.4 °F 76% 29.96 in 10.0 mi Calm Calm - N/A   Clear
8:55 PM 44.6 °F - 35.6 °F 71% 29.97 in 10.0 mi Calm Calm - N/A   Clear
9:15 PM 44.6 °F - 37.4 °F 76% 29.98 in 10.0 mi Calm Calm - N/A   Clear
9:35 PM 42.8 °F 41.1 °F 35.6 °F 76% 29.98 in 7.0 mi NW 3.5 mph - N/A   Clear
9:55 PM 42.8 °F - 35.6 °F 76% 30.00 in 7.0 mi Calm Calm - N/A   Clear
10:15 PM 42.8 °F 40.1 °F 35.6 °F 76% 30.01 in 7.0 mi WNW 4.6 mph - N/A   Clear
10:35 PM 42.8 °F 41.1 °F 35.6 °F 76% 30.02 in 7.0 mi NW 3.5 mph - N/A   Clear
10:55 PM 42.8 °F - 35.6 °F 76% 30.04 in 7.0 mi Calm Calm - N/A   Clear
11:15 PM 41.0 °F - 35.6 °F 81% 30.04 in 7.0 mi Calm Calm - N/A   Clear
11:35 PM 41.0 °F - 35.6 °F 81% 30.05 in 7.0 mi Calm Calm - N/A   Clear
11:55 PM 41.0 °F - 35.6 °F 81% 30.06 in 7.0 mi Calm Calm - N/A   Clear